Probability
0 0 0 0 0 0 0 0 0 0 0 0 0 0 0 0 0 0 0 0 0 0 0 0 0 0 0 0 0 0 0 0 0 0 0 0 0 0 0 0 0 0 0 0
0 0 0 0 0 0 0 0 0 0 0 0 0 0 0 0 0 0 0 0 0 0 0 0 0 0 0 0 0 0 0 0 0 0 0 0 0 0 0 0 0 0 0 0
0 0 0 0 0 0 0 0 0 0 0 0 0 0 0 0 0 0 0 0 0 0 0 0 0 0 0 0 0 0 0 0 0 0 0 0 0 0 0 0 0 0 0 0
0 0 0 0 0 0 0 0 0 0 0 0 0 0 0 0 0 0 0 0 0 0 0 0 0 0 0 0 0 0 0 0 0 0 0 0 0 0 0 0 0 0 0 0
0 0 0 0 0 0 0 0 0 0 0 0 0 0 0 0 0 0 0 0 0 0 0 0 0 0 0 0 0 0 0 0 0 0 0 0 0 0 0 0 0 0 0 0
0 0 0 0 0 0 0 0 0 0 0 0 0 0 0 0 0 0 0 0 0 0 0 0 0 0 0 0 0 0 0 0 0 0 0 0 0 0 0 0 0 0 0 0
0 0 0 0 0 0 0 0 0 0 0 0 0 0 0 0 0 0 0 0 0 0 0 0 0 0 0 0 0 0 0 0 0 0 0 0 0 0 0 0 0 0 0 0
0 0 0 0 0 0 0 0 0 0 0 0 0 0 0 0 0 0 0 0 0 0 0 0 0 0 0 0 0 0 0 0 0 0 0 0 0 0 0 0 0 0 0 0
0 0 0 0 0 0 0 0 0 0 0 0 0 0 0 0 0 0 0 0 0 0 0 0 0 0 0 0 0 0 0 0 0 0 0 0 0 0 0 0 0 0 0 0
0 0 0 0 0 0 0 0 0 0 0 0 0 0 0 0 0 0 0 0 0 0 0 0 0 0 0 0 0 0 0 0 0 0 0 0 0 0 0 0 0 0 0 0
0 0 0 0 0 0 0 0 0 0 0 0 0 0 0 0 0 0 0 0 0 0 0 0 0 0 0 0 0 0 0 0 0 0 0 0 0 0 0 0 0 0 0 0
0 0 0 0 0 0 0 0 0 0 0 0 0 0 0 0 0 0 0 0 0 0 0 0 0 0 0 0 0 0 0 0 0 0 0 0 0 0 0 0 0 0 0 0
0 0 0 0 0 0 0 0 0 0 0 0 0 0 0 0 0 0 0 0 0 0 0 0 0 0 0 0 0 0 0 0 0 0 0 0 0 0 0 0 0 0 0 0
0 0 0 0 0 0 0 0 0 0 0 0 0 0 0 0 0 0 0 0 0 0 0 0 0 0 0 0 0 0 0 0 0 0 0 0 0 0 0 0 0 0 0 0
0 0 0 0 0 0 0 0 0 0 0 0 0 0 0 0 0 0 0 0 0 0 0 0 0 0 0 0 0 0 0 0 0 0 0 0 0 0 0 0 0 0 0 0
0 0 0 0 0 0 0 0 0 0 0 0 0 0 0 0 0 0 0 0 0 0 0 0 0 0 0 0 0 0 0 0 0 0 0 0 0 0 0 0 0 0 0 0
0 0 0 0 0 0 0 0 0 0 0 0 0 0 0 0 0 0 0 0 0 0 0 0 0 0 0 0 0 0 0 0 0 0 0 0 0 0 0 0 0 0 0 0
0 0 0 0 0 0 0 0 0 0 0 0 0 0 0 0 0 0 0 0 0 0 0 0 0 0 0 0 0 0 0 0 0 0 0 0 0 0 0 0 0 0 0 0
0 0 0 0 0 0 0 0 0 0 0 0 0 0 0 0 0 0 0 0 0 0 0 0 0 0 0 0 0 0 0 0 0 0 0 0 0 0 0 0 0 0 0 0
0 0 0 0 0 0 0 0 0 0 0 0 0 0 0 0 0 0 0 0 0 0 0 0 0 0 0 0 0 0 0 0 0 0 0 0 0 0 0 0 0 0 0 0
0 0 0 0 0 0 0 0 0 0 0 0 0 0 0 0 0 0 0 0 0 0 0 0 0 0 0 0 0 0 0 0 0 0 0 0 0 0 0 0 0 0 0 0
0 0 0 0 0 0 0 0 0 0 0 0 0 0 0 0 0 0 0 0 0 0 0 0 0 0 0 0 0 0 0 0 0 0 0 0 0 0 0 0 0 0 0 0
0 0 0 0 0 0 0 0 0 0 0 0 0 0 0 0 0 0 0 0 0 0 0 0 0 0 0 0 0 0 0 0 0 0 0 0 0 0 0 0 0 0 0 0
0 0 0 0 0 0 0 0 0 0 0 0 0 0 0 0 0 0 0 0 0 0 0 0 0 0 0 0 0 0 0 0 0 0 0 0 0 0 0 0 0 0 0 0
0 0 0 0 0 0 0 0 0 0 0 0 0 0 0 0 0 0 0 0 0 0 0 0 0 0 0 0 0 0 0 0 0 0 0 0 0 0 0 0 0 0 0 0
0 0 0 0 0 0 0 0 0 0 0 0 0 0 0 0 0 0 0 0 0 0 0 0 0 0 0 0 0 0 0 0 0 0 0 0 0 0 0 0 0 0 0 0
Height
5880 5879 5877 5875 5873 5871 5868 5866 5863 5861 5857 5854 5850 5847 5843 5836 5830 5823 5815 5806 5797 5786 5774 5762 5750 5736 5722 5707 5692 5676 5661 5646 5632 5620 5610 5600 5590 5582 5574 5567 5560 5556 5552 5550
5879 5877 5875 5873 5871 5868 5866 5863 5860 5859 5855 5850 5846 5843 5838 5831 5824 5816 5807 5797 5787 5776 5763 5750 5736 5722 5707 5691 5675 5659 5644 5629 5615 5603 5592 5581 5572 5563 5556 5549 5543 5538 5534 5531
5877 5876 5873 5871 5868 5866 5863 5860 5856 5853 5850 5847 5842 5838 5833 5824 5816 5808 5798 5788 5778 5765 5751 5737 5723 5708 5692 5676 5660 5644 5628 5613 5599 5587 5576 5565 5556 5547 5539 5533 5526 5520 5515 5512
5875 5873 5871 5868 5865 5862 5860 5857 5853 5849 5845 5841 5838 5830 5826 5816 5807 5799 5789 5779 5767 5753 5739 5725 5710 5695 5678 5661 5644 5628 5613 5599 5585 5572 5561 5550 5541 5532 5524 5517 5510 5504 5498 5493
5874 5871 5869 5866 5863 5860 5856 5853 5849 5845 5841 5837 5831 5824 5818 5808 5799 5791 5781 5769 5756 5742 5728 5713 5697 5680 5663 5647 5631 5615 5600 5586 5572 5560 5548 5538 5528 5519 5511 5503 5496 5489 5483 5477
5872 5869 5866 5863 5860 5856 5853 5850 5847 5842 5835 5829 5822 5816 5811 5803 5794 5782 5770 5758 5746 5732 5717 5701 5684 5667 5651 5634 5618 5603 5589 5575 5562 5549 5538 5527 5516 5507 5498 5490 5482 5475 5469 5463
5871 5867 5864 5861 5858 5854 5851 5846 5840 5834 5828 5824 5820 5814 5808 5796 5785 5774 5763 5751 5737 5722 5706 5689 5673 5657 5640 5623 5608 5593 5578 5565 5552 5540 5528 5516 5505 5495 5485 5477 5469 5462 5456 5449
5868 5866 5862 5858 5855 5851 5847 5843 5838 5832 5827 5823 5816 5806 5801 5790 5780 5769 5757 5744 5728 5711 5695 5679 5662 5645 5629 5613 5597 5583 5569 5556 5543 5531 5518 5506 5494 5484 5474 5465 5457 5449 5442 5435
5865 5863 5859 5855 5852 5848 5844 5840 5836 5830 5823 5816 5810 5802 5795 5785 5775 5764 5750 5734 5718 5703 5686 5669 5652 5635 5619 5603 5588 5574 5561 5547 5534 5521 5509 5496 5485 5474 5464 5455 5447 5439 5431 5424
5863 5861 5857 5854 5850 5846 5842 5837 5832 5826 5818 5810 5804 5797 5789 5779 5768 5755 5741 5726 5710 5694 5677 5660 5643 5626 5610 5595 5580 5566 5553 5539 5526 5512 5499 5487 5476 5465 5455 5446 5438 5429 5421 5413
5861 5858 5856 5852 5848 5844 5839 5834 5828 5822 5815 5806 5796 5793 5785 5773 5760 5747 5733 5717 5701 5685 5669 5652 5635 5618 5603 5588 5574 5560 5546 5532 5519 5505 5492 5479 5468 5457 5447 5438 5428 5419 5410 5402
5859 5856 5852 5850 5846 5841 5836 5830 5824 5819 5812 5804 5795 5789 5777 5765 5753 5739 5725 5709 5693 5677 5661 5644 5627 5612 5597 5582 5568 5554 5540 5526 5511 5498 5485 5472 5461 5450 5440 5429 5419 5409 5399 5390
5857 5853 5850 5847 5845 5840 5834 5828 5821 5814 5808 5800 5791 5784 5771 5758 5745 5731 5717 5701 5686 5670 5653 5637 5621 5605 5591 5577 5563 5548 5534 5519 5505 5491 5478 5466 5454 5443 5432 5420 5409 5398 5387 5377
5856 5851 5847 5843 5837 5833 5827 5822 5817 5810 5802 5795 5786 5776 5764 5751 5738 5724 5710 5695 5679 5663 5647 5631 5615 5600 5586 5572 5557 5543 5528 5514 5499 5486 5473 5460 5448 5436 5423 5410 5397 5385 5373 5362
5855 5850 5845 5840 5835 5830 5824 5819 5813 5806 5798 5791 5782 5771 5759 5746 5733 5719 5704 5689 5673 5657 5641 5625 5610 5596 5582 5568 5553 5539 5524 5509 5495 5481 5468 5455 5442 5428 5414 5400 5386 5371 5357 5342
5853 5848 5843 5839 5833 5828 5822 5816 5809 5802 5794 5785 5776 5766 5754 5741 5728 5713 5698 5683 5668 5652 5636 5620 5605 5591 5578 5564 5550 5535 5520 5506 5491 5477 5464 5450 5436 5422 5406 5390 5374 5357 5339 5323
5851 5845 5839 5834 5829 5825 5817 5810 5803 5797 5789 5780 5770 5761 5748 5735 5723 5708 5693 5679 5663 5647 5631 5616 5601 5588 5574 5560 5546 5531 5517 5502 5488 5474 5461 5447 5431 5415 5398 5381 5363 5342 5322 5305
5848 5842 5835 5829 5824 5818 5815 5805 5798 5791 5784 5774 5764 5754 5743 5730 5718 5703 5689 5674 5659 5643 5627 5613 5599 5585 5572 5558 5543 5529 5514 5500 5487 5473 5458 5443 5427 5410 5392 5374 5354 5331 5310 5293
5846 5839 5832 5824 5817 5813 5808 5800 5792 5784 5779 5769 5759 5749 5738 5725 5712 5699 5685 5669 5655 5639 5624 5609 5596 5583 5569 5556 5542 5527 5513 5500 5486 5471 5456 5441 5424 5407 5388 5369 5348 5325 5305 5290
5844 5838 5831 5822 5814 5807 5804 5795 5787 5780 5773 5764 5754 5744 5733 5721 5708 5695 5680 5665 5650 5635 5620 5606 5593 5580 5567 5554 5540 5526 5514 5500 5485 5470 5455 5439 5422 5404 5386 5366 5346 5324 5305 5291
5841 5835 5828 5819 5812 5805 5798 5790 5782 5775 5769 5758 5749 5739 5728 5716 5704 5690 5675 5661 5646 5632 5617 5603 5591 5579 5566 5553 5539 5526 5513 5498 5484 5469 5455 5439 5423 5406 5387 5368 5348 5328 5309 5296
5837 5830 5822 5814 5806 5801 5792 5784 5778 5771 5762 5754 5744 5734 5723 5711 5698 5685 5671 5657 5643 5629 5614 5601 5589 5577 5565 5552 5539 5526 5512 5498 5484 5471 5457 5442 5426 5409 5392 5373 5355 5337 5318 5305
5835 5828 5820 5813 5807 5797 5788 5780 5774 5766 5758 5749 5740 5730 5719 5707 5694 5681 5668 5654 5640 5626 5612 5599 5587 5575 5564 5552 5539 5527 5514 5500 5487 5474 5460 5445 5430 5414 5397 5380 5363 5346 5329 5314
5832 5825 5818 5809 5801 5793 5784 5776 5769 5761 5753 5744 5735 5725 5714 5703 5690 5677 5664 5651 5638 5624 5610 5597 5586 5575 5563 5552 5540 5527 5515 5502 5489 5477 5464 5450 5435 5419 5403 5388 5372 5356 5340 5325
5827 5820 5813 5807 5798 5790 5781 5773 5765 5757 5748 5740 5731 5721 5710 5698 5686 5674 5661 5648 5635 5622 5609 5596 5585 5574 5563 5552 5541 5529 5517 5505 5493 5481 5468 5455 5440 5425 5410 5394 5379 5364 5349 5335
5824 5817 5810 5803 5794 5785 5777 5768 5760 5752 5744 5735 5726 5716 5705 5694 5683 5670 5658 5646 5633 5620 5607 5595 5583 5573 5563 5553 5542 5531 5519 5508 5497 5486 5473 5460 5446 5432 5418 5403 5389 5375 5362 5349
Wind_Speed
9 11 12 14 16 18 19 21 22 23 26 27 29 31 31 36 40 44 49 53 58 63 67 71 75 78 80 82 83 84 84 83 80 75 71 67 63 60 58 57 56 55 54 53
11 12 14 15 17 19 20 22 23 22 24 28 29 31 32 37 42 47 52 57 61 66 71 75 78 80 82 83 83 83 82 80 77 73 70 68 65 62 60 59 58 57 57 56
12 14 15 17 18 19 21 22 24 26 25 26 31 32 34 40 45 50 55 60 65 70 75 78 80 81 82 83 83 82 80 77 74 71 68 64 61 59 56 54 53 53 54 55
14 16 17 18 20 21 21 22 23 25 28 30 32 37 37 44 50 55 59 64 69 74 78 80 81 81 82 82 82 80 77 74 71 67 64 60 57 55 53 51 49 48 48 48
16 18 19 20 21 21 22 23 24 26 29 31 33 39 43 49 54 58 63 68 73 77 79 79 81 82 82 81 80 77 74 70 66 63 61 59 57 55 53 51 50 48 46 46
18 19 20 21 22 22 23 24 25 27 32 37 41 45 47 51 56 62 67 71 75 77 78 79 81 82 81 80 78 74 70 66 63 62 61 59 58 57 54 52 50 47 45 44
18 20 20 21 21 22 24 26 30 35 37 40 42 44 48 54 60 65 69 72 74 77 79 80 81 81 80 78 75 71 66 64 63 62 61 60 59 57 54 51 48 46 45 43
20 19 20 21 22 23 25 27 31 34 37 38 41 46 52 56 61 65 69 73 76 78 79 80 80 80 78 76 72 67 65 64 63 62 62 60 58 56 52 49 47 46 45 44
20 20 21 21 22 24 26 28 31 34 37 41 45 48 53 57 61 66 71 74 77 78 78 79 79 78 76 73 69 66 65 64 63 63 62 59 56 54 50 48 47 46 45 44
20 19 20 20 22 25 27 30 33 36 40 44 46 51 55 58 63 68 72 74 76 77 78 78 78 77 74 70 67 66 65 64 64 63 61 58 55 52 49 48 47 46 46 45
20 20 19 21 23 25 28 31 33 35 39 44 50 53 55 60 65 70 72 74 76 77 77 77 77 75 71 67 66 65 65 64 64 62 59 56 54 51 50 49 49 48 47 46
21 21 20 20 22 25 29 32 35 37 40 43 48 54 56 61 67 71 73 74 75 76 76 76 75 72 68 65 64 64 65 64 63 61 58 55 53 52 51 50 50 50 49 47
23 22 22 22 23 25 27 31 34 38 40 43 48 54 58 63 68 71 73 73 74 75 75 75 73 69 65 64 64 64 65 64 63 60 57 54 53 52 52 52 52 52 51 50
25 24 24 26 27 29 31 34 35 38 41 44 48 53 59 64 68 70 72 73 74 75 74 74 70 66 64 63 64 64 64 64 62 59 56 55 54 55 56 56 56 56 55 54
29 26 25 26 27 28 31 33 35 37 40 44 48 53 59 64 68 71 72 73 74 74 73 71 67 64 62 62 63 64 64 63 61 59 57 56 57 58 59 59 59 60 61 59
35 32 28 26 26 27 29 32 34 37 40 44 49 54 60 66 69 71 72 73 73 72 72 69 65 62 61 62 63 63 63 62 60 59 58 58 59 60 60 61 62 64 62 57
39 39 36 31 29 28 30 35 37 38 41 46 51 56 61 67 69 70 72 72 72 71 70 66 62 60 60 61 63 63 63 62 60 59 58 59 61 61 62 63 66 67 62 52
42 43 41 38 35 32 35 36 39 41 42 47 52 57 62 67 70 70 71 71 71 70 68 64 60 58 59 61 62 62 62 61 60 59 59 61 63 63 64 66 69 68 59 46
44 46 46 44 41 38 37 39 42 44 44 49 53 58 63 67 70 69 70 69 69 68 66 62 58 57 58 60 61 62 61 60 59 59 61 63 64 65 66 68 71 68 57 43
44 46 47 46 44 42 41 41 43 46 47 51 55 59 64 67 69 69 69 68 67 67 64 60 57 56 57 59 60 60 59 59 60 60 62 64 66 67 68 69 72 68 57 44
45 48 49 49 46 42 43 43 45 46 50 52 55 59 63 67 68 68 67 66 66 65 63 59 56 55 56 58 59 59 59 60 60 61 63 65 66 68 68 69 72 69 59 46
46 50 53 54 53 48 47 45 45 47 49 52 56 60 63 66 67 66 65 65 65 64 61 57 54 54 55 57 57 58 59 60 60 61 62 64 66 67 68 68 69 69 61 50
44 49 52 54 52 51 48 46 46 47 50 52 56 60 63 66 66 65 64 64 64 63 60 56 53 53 54 55 56 57 58 58 59 60 61 62 65 67 68 68 68 68 65 56
44 48 51 53 54 52 49 47 47 48 50 53 56 60 63 65 65 64 63 63 62 62 59 55 52 52 52 54 55 56 56 57 58 59 60 61 63 66 68 68 68 68 67 63
46 50 52 53 55 54 50 48 48 49 51 53 57 60 62 64 64 63 62 61 61 60 58 54 51 50 51 52 54 54 55 55 56 57 58 60 62 64 66 68 69 68 67 66
44 48 52 54 56 56 52 50 49 50 51 54 57 59 61 63 63 62 61 60 60 59 57 54 51 49 49 51 52 52 53 53 54 55 56 58 60 62 64 66 67 68 67 65
Wind_Direction
313 312 314 315 315 314 313 311 312 316 316 318 320 323 326 322 322 322 323 324 325 325 325 324 324 324 323 322 320 319 317 315 314 313 312 310 306 303 298 294 290 287 284 280
321 321 321 320 317 315 314 314 315 317 317 321 323 326 327 323 324 325 327 328 328 327 327 326 326 325 324 323 321 320 318 317 317 316 314 311 308 305 301 297 292 288 284 280
329 328 326 324 322 321 321 320 321 323 325 327 325 323 327 326 328 329 330 330 329 329 329 328 328 326 325 324 323 322 321 321 320 318 316 314 312 310 306 302 298 293 288 282
332 330 329 327 325 324 324 324 325 326 328 329 327 324 332 331 331 332 332 331 331 331 330 330 329 327 326 326 325 324 324 324 323 322 321 320 318 315 312 309 305 300 295 289
330 329 329 328 326 326 327 329 330 328 326 326 328 332 337 335 332 332 333 334 334 333 331 330 329 329 328 327 327 327 327 327 326 325 325 323 321 319 317 314 310 307 302 296
328 328 328 328 328 329 330 330 328 327 330 335 338 337 336 334 333 336 336 336 335 332 332 331 331 330 330 329 329 330 330 330 329 328 327 325 324 322 319 317 314 311 306 301
325 326 328 329 329 329 331 332 334 335 336 336 332 331 335 337 338 338 337 336 334 333 334 333 332 331 331 331 332 333 333 332 331 330 329 327 325 324 322 320 318 315 311 306
328 328 329 331 331 332 333 334 334 333 331 329 330 335 339 338 338 337 336 335 335 335 335 334 333 333 333 333 335 335 334 333 333 332 330 329 327 326 325 323 322 320 318 314
330 331 331 332 331 331 332 332 332 330 328 332 335 335 337 338 337 336 336 337 336 336 335 335 335 334 335 336 337 337 336 335 335 334 332 331 330 329 327 325 324 322 321 318
333 331 330 329 330 330 330 330 331 332 333 333 333 335 339 337 336 337 338 338 337 337 336 336 336 336 337 338 338 338 337 337 337 336 335 333 332 331 329 327 325 324 322 320
337 332 330 328 328 328 328 329 331 333 334 334 333 335 337 337 338 339 339 339 338 338 337 337 337 338 339 339 340 339 339 339 338 338 337 336 335 333 331 329 327 325 323 321
341 334 330 328 327 329 330 330 332 334 334 332 330 333 337 338 339 340 340 340 339 339 339 339 339 340 340 341 341 341 341 341 341 340 339 339 337 336 333 331 328 326 323 321
346 338 331 329 329 329 329 330 332 332 331 331 332 334 337 339 341 341 341 340 339 340 340 340 340 341 342 342 342 343 343 343 343 343 342 341 340 337 335 332 329 326 323 320
353 345 338 333 333 334 332 332 332 330 330 332 334 336 339 341 342 341 341 341 340 341 341 341 341 342 343 344 344 345 345 346 346 345 345 343 341 339 336 333 330 327 324 320
360 354 345 338 335 333 330 328 329 329 330 332 335 339 340 341 342 342 342 342 342 342 342 342 342 344 345 346 346 347 347 348 348 348 347 346 344 341 338 335 331 328 325 320
4 359 352 345 338 333 328 326 328 331 332 334 338 340 341 342 343 343 343 343 343 343 343 343 344 345 346 347 348 349 350 350 351 351 350 348 346 343 341 338 336 333 329 324
5 1 356 349 342 336 332 332 332 334 335 337 340 341 342 342 344 344 344 343 344 344 344 345 345 346 348 349 350 351 352 353 353 353 351 350 349 348 345 343 342 339 336 332
3 2 358 351 344 343 337 334 334 336 339 339 340 341 342 343 344 344 344 344 345 345 345 346 347 348 350 352 353 353 354 355 355 354 354 354 353 352 350 349 348 347 346 344
2 360 357 352 346 342 338 337 337 337 340 339 340 341 342 343 344 345 345 345 345 346 347 348 349 350 352 354 354 356 356 356 357 357 358 358 357 357 356 355 356 356 356 356
358 359 356 353 347 342 340 338 337 337 339 340 341 341 342 343 344 345 345 346 346 348 348 349 350 352 354 355 356 357 357 358 360 1 1 1 2 2 1 1 2 3 4 5
354 356 355 352 349 344 341 339 338 338 339 339 339 340 342 343 345 345 345 346 348 349 350 350 352 353 356 357 358 358 359 1 3 3 3 4 5 6 6 7 7 9 10 11
350 352 353 351 349 346 342 339 339 337 337 337 339 340 342 343 345 346 346 347 349 350 351 352 353 355 357 359 359 0 1 3 5 5 5 6 8 10 11 12 12 14 15 17
347 349 351 350 348 345 342 339 337 336 336 337 338 340 342 344 345 346 347 348 350 351 352 353 354 356 358 360 1 2 3 5 7 7 7 8 10 12 14 16 17 18 20 22
343 346 347 348 347 345 342 338 337 336 336 336 338 340 342 344 345 346 347 349 351 352 353 354 355 357 359 1 2 3 5 6 8 8 9 10 13 14 16 18 20 21 23 26
339 342 344 346 345 344 342 339 337 336 336 336 338 340 341 344 345 346 348 350 352 353 354 355 356 358 359 1 3 4 6 8 9 10 10 12 15 17 18 20 22 23 25 27
334 338 340 343 343 343 341 339 337 336 336 337 338 339 341 344 345 346 348 350 352 354 355 356 357 358 360 2 4 5 6 8 10 11 12 14 17 18 20 21 23 25 26 28